Content
SEND FEEDBACK

Daily
Averages
Monthly
Summary
United States of America

ANN ARBOR, MICHIGAN


Home > North America > United States > Michigan
Elevation: 759 feet     Latitude: 42 17N     Longitude: 083 43W

WEATHER
 
SELECT A DAY
Number of Records: 203,415;   Date Range: 1/1/95 - 7/29/14
 
SHARE

PRINT THIS DATA

[ ← Previous Day ]
WEATHER ALMANAC - JULY 16, 2013
[ Next Day → ]
[ °C ]   °F
Weather ElementAverageHighLow
Temperature81.8 °F90 °F (1:53 pm)73 °F (11:53 pm)
Dewpoint73.8 °F77 °F (4:53 pm)71.1 °F (11:53 pm)
Humidity78 %97 % (1:53 am)55 % (1:53 pm)
Barometer30.27 in30.31 in (8:53 am)30.24 in (6:53 pm)
Wind Speed4.4 mph10.4 mph (1:53 pm)
Weather ElementAverage
Visibility8.3 mi
Wind DirectionSSW (215 °)

Weather ElementTotal
Precipitation0.01 in
Cooling Degree Days16.5 (Base 65)
Growing Degree Days31.5 (Base 50)
Averaged from 26 records on July 16, 2013
WEATHER CONDITIONS BREAKOUT
WIND DIRECTION BREAKOUT
WEATHER BY HOUR - JULY 16, 2013
[ °C ]   °F
Local TimeTemperatureDewpointHumidityBarometerVisibilityWind DirectionWind SpeedGust SpeedPrecipitationEventsConditions
1:53 AM75.9 °F75.0 °F97 %30.27 in7.0 miSSW (210°)3.5 mph0.01 inThunderstormOvercast
2:53 AM77.0 °F73.0 °F88 %30.26 in10.0 miNW (310°)5.8 mph0.00 inOvercast
3:53 AM75.0 °F73.0 °F94 %30.26 in8.0 miSSW (200°)3.5 mphMostly Cloudy
4:53 AM75.0 °F73.0 °F94 %30.26 in10.0 miCalmMostly Cloudy
5:53 AM75.0 °F73.0 °F94 %30.27 in8.0 miWest (280°)3.5 mphOvercast
6:53 AM75.0 °F73.9 °F96 %30.29 in5.0 miCalm0.00 inOvercast
7:53 AM78.1 °F75.0 °F90 %30.30 in9.0 miCalm0.00 inClear
8:53 AM82.0 °F75.0 °F79 %30.31 in10.0 miWNW (290°)8.1 mphOvercast
9:53 AM84.0 °F75.0 °F74 %30.31 in10.0 miWNW (300°)5.8 mphScattered Clouds
10:53 AM88.0 °F75.9 °F67 %30.30 in10.0 miNW (320°)6.9 mphPartly Cloudy
11:53 AM87.1 °F75.0 °F67 %30.30 in10.0 miWNW (300°)8.1 mphMostly Cloudy
12:53 PM89.1 °F73.9 °F61 %30.29 in10.0 miNNW (330°)6.9 mphMostly Cloudy
1:53 PM90.0 °F72.0 °F55 %30.28 in10.0 miWest (280°)10.4 mphPartly Cloudy
2:53 PM90.0 °F73.0 °F57 %30.27 in10.0 miWest (280°)8.1 mphPartly Cloudy
3:53 PM89.1 °F72.0 °F57 %30.27 in10.0 miWNW (290°)4.6 mphScattered Clouds
4:53 PM88.0 °F77.0 °F70 %30.26 in10.0 miESE (120°)3.5 mphOvercast
5:53 PM90.0 °F73.9 °F59 %30.25 in10.0 miWNW (290°)6.9 mphScattered Clouds
6:53 PM89.1 °F73.9 °F61 %30.24 in10.0 miWest (270°)4.6 mphClear
7:53 PM86.0 °F73.9 °F67 %30.25 in10.0 miWest (270°)5.8 mphClear
8:53 PM82.9 °F75.0 °F77 %30.25 in10.0 miWest (260°)3.5 mphClear
9:32 PM78.8 °F73.4 °F83 %30.27 in1.8 miCalmHaze
9:40 PM78.8 °F73.4 °F83 %30.27 in1.2 miSW (230°)3.5 mphClear
9:45 PM77.0 °F73.4 °F89 %30.27 in2.0 miWSW (250°)3.5 mphClear
9:53 PM78.1 °F73.9 °F87 %30.25 in4.0 miWest (260°)3.5 mphClear
10:53 PM75.0 °F72.0 °F90 %30.25 in9.0 miWSW (250°)4.6 mphClear
11:53 PM73.0 °F71.1 °F93 %30.26 in10.0 miCalmClear
Hourly data recorded from KARB, located miles away from Ann Arbor, Michigan







STORIES FROM OUR PARTNERS